Погода в Вильнюсе

Погода в Вильнюсе : погода сейчас, прогноз погоды и архив. Всё, что Вы хотите узнать о погоде в Вильнюсе!

Поиск расширенной информации на нашем сайте:

Другие новости

Новости СМИ2

Главная страница сайта

Новости сайта

03.07.2017

Напоминаем, что на нашем специализированном сайте Метеоцентр.Азия вы можете получить высокодетализированные автоматические прогнозы погоды по пунктам России, СНГ и мира в авиационном формате (включающие направление и скорость ветра, видимость, явления погоды, количество и форму облачности, нижнюю и верхнюю границу облачности).


Погода в Вильнюсе - сегодня

Время (UTC), дата Ветер
(°,м/с) 
Видим.   Явления Облачность Т
(°С)
Тd
(°С)
f(%) Тe
(°С)
Pmin
(гПа)
dP
(гПа)
Po
(мм)
O2
(г/м3)
Тmin Tmax R s Состояние
почвы
00 16.02.18 140 (ЮВ) 8000 м  дымка  9/0 средняя 
[Ac As]
-6.2 -8.9 81 -9  1026.6  -0.9             
03 16.02.18 150 (ЮВ) 3-5{06}  7000 м  слаб. снег  9/9 1500 м средняя 
[As op]
-5.9 -8.1 84 -8  1025.1  -1.4  754  311           
06 16.02.18 140 (ЮВ) 3-5{06}  2100 м  слаб. снег  10/10 1500 м 
[Ns]
-5.6 -7 90 -8  1024  -1.1  753  310  -7.3    0.5  10  равномерный
сухой снег
100% 
09 16.02.18 150 (ЮВ) 4-5{06}  7000 м  слаб. снег  10/10 300 м 
[Ns]
-4.2 -6.1 87 -7  1022.8  -1  752  308           
12 16.02.18 150 (ЮВ) 3-5{07}  6000 м  дымка{снег}  10/10 270 м 
[St]
-3.2 -5.3 85 -5  1021.8  -1  751  307      0.1  11   
15 16.02.18 160 (Ю) 3-4{06}  8000 м  дымка  10/10 420 м 
[St]
-2.1 -4.6 83 -4  1020.9  -0.8  751  305           
18 16.02.18 150 (ЮВ) 3-4{05}  6000 м  слаб. снег  10/10 800 м 
[Ns]
-2.1 -3.6 89 -4  1020.7  -0.2  751  305    -2  0.1  11   
21 16.02.18 200 (Ю) 2-3{05}  2700 м  слаб. снег  10/10 210 м 
[Ns]
-1.9 -3 92 -3  1020.3  -0.3  750  305           
00 17.02.18 190 (Ю) 2-4{04}  1700 м  слаб. снег  10/10 120 м 
[Ns]
-1.8 -2.9 92 -3  1020.1  -0.2  750  305      0.5  11   
03 17.02.18 210 (ЮЗ) 3-5{05}  2500 м  в посл. час снег  10/10 150 м 
[St]
-0.9 -1.6 95 -3  1019.3  -0.7  750  303           
06 17.02.18 150 (ЮВ) 3-4{06}  2300 м  снег  10/10 120 м 
[Ns]
-0.9 -1.6 95 -3  1017.9  -1.4  749  303  -2.1    12  равномерный
сухой снег
100% 
09 17.02.18 190 (Ю) 3-5{06}  1200 м  слаб. снег  10/10 150 м 
[Ns]
+0 -0.8 94 -2  1016.3  -1.5  748  301           
12 17.02.18 280 (З) 4-7{07}  8000 м  слаб. дождь со снегом  10/10 180 м 
[Ns]
+0.4 -0.7 92 -2  1016.5  0.2  748  301      14   
15 17.02.18 300 (СЗ) 6-9{11}  2000 м  слаб. снег{дождь}  10/10 240 м 
[Ns]
-1.6 -3 90 -5  1018.3  1.6  749  304           
18 17.02.18 310 (СЗ) 2-5{09}  5000 м  в посл. час снег{дождь}  10/10 270 м 
[St]
-3.4 -5.1 88 -5  1019.8  1.4  750  307    +0.5  15   
21 17.02.18 290 (З) 2-3{07}  4100 м  дымка  10/10 270 м 
[St]
-3.7 -5.2 89 -5  1020.4  0.5  750  307           
00 18.02.18 310 (СЗ) 3-4{05}  5000 м  слаб. снег  10/10 240 м 
[Ns]
-3.6 -5 90 -6  1020.9  0.5  751  307      0.0  15   
03 18.02.18 310 (СЗ) 3-5{06}  8000 м  слаб. снег  10/10 270 м 
[Ns]
-4.1 -5.7 89 -6  1021.4  0.5  751  308           
06 18.02.18 320 (СЗ) 3-6{07}  9000 м  в посл. час снег  10/10 300 м 
[St]
-4.3 -5.9 89 -7  1022.3  0.8  752  308  -4.3    0.0  15  равномерный
сухой снег
100% 
09 18.02.18 330 (СЗ) 2-5{08}  4900 м  в посл. час снег  9/9 360 м 
[St]
-3.7 -5.9 85 -5  1022.9  0.7  752  308           
12 18.02.18 310 (СЗ) 5-7{07}  6000 м  слаб. снег  10/10 600 м 
[Ns]
-3.3 -6.1 81 -7  1023.9  753  308      0.0  15   
15 18.02.18 310 (СЗ) 3-7{08}  20000 м  {снег}  10/10 630 м 
[Sc]
-3.9 -7.6 75 -6  1025  754  309           
18 18.02.18 280 (З) 2-4{08}  2700 м  слаб. снег  10/10 300 м 
[Ns]
-5.1 -7.2 85 -6  1025.4  0.3  754  310    -3  0.0  15   
21 18.02.18 240 (ЮЗ) 1-4{04}  1100 м  снег  10/10 330 м 
[Ns]
-4.4 -5.7 91 -4  1024.1  -1.2  753  309           
00 19.02.18 300 (СЗ) 4-6{07}  12000 м  слаб. снег  10/10 240 м 
[Ns]
-2.4 -3.6 91 -5  1023.5  -0.4  753  306      18   
Время (UTC), дата Ветер
(°,м/с) 
Видим.   Явления Облачность Т
(°С)
Тd
(°С)
f(%) Тe
(°С)
Pmin
(гПа)
dP
(гПа)
Po
(мм)
O2
(г/м3)
Тmin Tmax R s Состояние
почвы

Для получения пояснительной информации подведите курсор к названию столбца.

ПОГОДА в Вильнюсе - архив

Всё, что Вы хотите узнать о погоде в Вильнюсе - удобно и подробно!

Выберите нужную дату (начиная с 1 января 2015* года) и нажмите кнопку "Найти".
Будут отображены архивные сводки погоды по пункту Вильнюс, начиная с указанной даты.


Отображать данные в формате CSV (для использования в таблицах Excel)


Внимание! Наш архив погоды предназначен исключительно для личного некоммерческого использования в познавательных целях. Если Вам необходимы официальные справки о состоянии погоды (для производственных, юридических, коммерческих и т.п. целей), обращайтесь в органы Росгидромета.

*Примечание: данная дата относится к архиву по метеостанциям СССР (Россия, СНГ, Балтия).
Архив по метеостанциям Зарубежной Европы и Азии (кроме Китая) хранится 10 дней, по другим регионам земного шара (Китай, Африка, Америка, Австралия, Океания) - 1 день.

Вильнюс - район местоположения метеостанции


Название, широта, долгота, высота метеостанции:
Вильнюс 54.6°ш. 25.1°д. 156 м над ур. моря [Литва]

Дополнительная информация

В oтличие oт бoльшинства пoгoдных сайтoв мы публикуем пoдрoбную метеoинфoрмацию в детальнoм прoфессиoнальнoм фoрмате.

Характеристики температуры и влажнoсти вoздуха измеряются на высoте 2 м в тени вдали oт зданий и деревьев.
Скoрoсть ветра измеряется на высoте 10 м (на урoвне рoста челoвека скoрoсть ветра ниже в 1.5-2 раза). Если метеoстанция нахoдится в гoрoде или в лесу, тo скoрoсть ветра занижена на 2-4 м/с пo сравнению с oткрытым местoм. Скoрoсть ветра над акватoриями крупных рек и oзёр, а также на вершинах хoлмoв на 2-5 м/с выше, чем в oбычных услoвиях.
Атмoсфернoе давление в разных тoчках местнoсти мoжет значительнo oтличаться oт давления на метеoстанции, в зависимoсти oт услoвий рельефа (при пoдъёме на 10 м давление пoнижается примернo на 1 мм рт.ст.).